sat.trackr.live / text

‹ back to catalog

STARLINK-3911

NORAD 52565 · 2022-051AJ

PAYLOAD ACTIVE UNKNOWN

§ Identity

Operator
Country
US
Launch date
2022-05-13
Launch site
AFWTR
Launch vehicle
Mass (kg)
RCS (m²)

Purposes: comms

External: N2YO · Heavens-Above · Gunter

§ Orbital elements

Epoch: 2026-05-25T03:38:57.337728Z

Period
95.44 min
Inclination
53.2150°
Eccentricity
0.0001151
Mean motion
15.08839881 rev/d
Perigee alt
538.9 km
Apogee alt
540.5 km
Semi-major
6,917.9 km
B*
3.9146e-5
RAAN
135.8682°
Arg perigee
76.4722°
Mean anomaly
283.6398°
Rev number
22,312

§ Raw data

STARLINK-39111 52565U 22051AJ  26145.15205252  .00000335  00000+0  39146-4 0  99902 52565  53.2150 135.8682 0001151  76.4722 283.6398 15.08839881223120

JSON: /api/v1/satellites/52565 · /tle

For live sub-satellite position, see the globe view (requires WebGL).

§ Visibility from observer

Set your observer location to see the next 7 days of passes ≥ 10°. The values pass through the URL so the page stays shareable.

No JS? Fill the form by hand. The geolocation button needs JavaScript.